Temperature
17 17 18 18 18 18 18 17 17 17 18 18 17 17 17 17 17 17 17 17 17 17 17 17 17 17 17 18 18 18 18 18 18 18 18 18 18 18 18 18 18 17 18
17 17 18 17 17 17 17 17 17 17 17 17 17 17 17 17 17 17 17 17 17 17 17 17 17 17 17 17 17 18 18 18 18 18 18 18 18 18 18 18 18 18 18
17 17 17 17 17 17 17 17 17 17 17 17 17 17 17 16 16 16 16 16 16 17 17 17 17 17 17 17 17 17 17 18 18 18 18 17 17 18 18 18 18 18 18
17 17 16 17 17 17 17 17 17 17 17 16 16 16 16 16 16 16 16 16 16 16 16 16 17 17 17 17 17 17 17 17 18 18 17 17 17 18 18 18 18 18 18
17 16 17 17 17 17 17 17 17 16 16 16 16 16 16 16 16 16 16 16 16 16 16 16 16 16 16 17 17 17 17 17 17 17 17 17 17 17 18 18 18 18 18
17 16 16 17 17 17 17 16 16 16 16 16 16 16 16 15 15 15 15 15 15 16 16 16 16 16 16 16 16 17 17 17 17 16 16 17 17 17 18 18 18 18 18
17 16 16 17 16 16 16 16 16 16 16 16 16 16 15 15 15 15 15 15 15 15 15 16 16 16 16 16 16 16 17 17 16 16 16 16 17 17 17 17 17 18 18
17 16 16 17 16 16 16 16 16 16 16 16 16 15 15 15 15 15 15 15 15 15 15 15 15 16 16 16 16 16 16 16 16 16 16 16 17 17 17 17 17 17 18
17 17 17 16 16 16 16 16 16 16 16 16 15 15 15 15 15 15 15 15 15 15 15 15 15 15 16 16 16 16 16 16 16 16 16 16 17 17 17 17 17 17 17
17 17 17 16 16 16 16 16 16 16 16 16 15 15 15 15 15 15 15 15 15 15 15 15 15 15 15 16 16 16 16 16 16 16 16 16 17 17 17 17 17 17 17
17 17 17 16 16 16 16 16 16 16 16 15 15 15 15 15 15 15 15 15 15 15 15 15 15 15 15 15 16 16 16 16 16 16 16 16 17 17 17 17 17 17 17
18 17 17 17 16 16 16 16 16 16 15 15 15 15 15 15 14 14 15 15 15 15 15 15 15 15 15 15 16 16 16 16 16 16 16 16 17 17 17 17 17 17 17
18 17 17 17 17 17 16 16 16 16 15 15 15 15 15 15 15 15 14 15 14 14 15 15 15 15 15 15 15 16 16 16 16 16 16 16 16 17 17 17 17 17 17
18 18 17 17 17 17 17 16 16 16 15 15 15 15 15 15 15 14 14 14 14 14 14 15 15 15 15 16 16 16 16 16 16 16 16 16 16 17 17 17 17 17 17
18 18 18 17 17 17 16 16 16 16 16 15 15 15 14 15 15 14 14 14 14 14 14 14 15 15 15 15 15 15 15 15 16 16 16 16 16 16 17 17 17 17 17
18 18 18 17 17 17 17 16 16 16 15 15 15 15 14 14 14 14 15 14 14 14 14 15 15 15 15 15 15 15 15 15 15 15 16 16 16 16 16 17 17 17 17
19 18 18 17 17 17 17 16 16 16 16 15 15 15 15 14 14 14 14 14 14 14 14 15 15 15 15 15 15 15 15 15 15 15 15 16 16 16 16 16 16 17 17
19 18 18 17 17 17 17 16 16 16 15 15 15 15 14 14 14 14 14 14 14 14 14 14 15 15 15 15 15 15 15 15 15 15 16 16 16 16 16 16 16 16 17
19 18 18 17 17 17 17 16 16 16 15 15 15 14 14 14 14 14 14 14 14 14 14 14 14 15 15 15 15 15 15 15 15 15 16 16 15 15 16 16 16 16 16
19 18 18 18 17 17 17 16 16 15 15 15 15 14 14 14 14 14 14 14 14 14 14 14 14 14 14 15 15 15 15 15 15 15 15 15 15 15 15 15 16 16 16
19 18 18 18 17 17 17 16 16 15 15 15 15 15 15 14 14 14 14 14 14 14 14 14 14 14 14 15 15 15 15 15 15 15 15 15 15 15 15 15 15 16 16
19 18 18 18 17 17 17 16 16 16 15 15 15 15 15 15 14 14 14 14 14 14 14 14 14 14 14 14 15 16 16 16 15 15 15 15 15 15 15 15 15 15 16
19 18 18 18 17 17 17 16 16 16 15 15 15 15 15 15 15 15 14 14 14 14 14 14 14 14 14 14 15 15 16 16 15 15 15 15 15 15 15 15 15 15 15
19 18 18 18 17 17 17 16 16 16 16 15 15 15 15 15 15 15 14 14 14 14 14 14 14 14 14 14 14 14 14 14 15 15 15 15 15 15 15 15 15 15 15
19 19 18 18 18 17 17 17 16 16 16 15 15 15 15 15 15 14 14 14 14 14 14 14 14 14 14 14 14 14 14 14 15 15 15 15 15 15 15 15 15 15 15
19 19 18 18 18 18 17 17 16 16 16 15 15 15 15 15 15 14 14 14 14 14 14 14 14 14 14 14 14 14 14 14 14 14 15 15 15 15 14 14 14 14 14
Wind_Speed
6 8 9 10 11 11 11 11 11 11 11 11 11 10 9 9 9 8 8 8 7 7 7 6 6 6 6 6 6 6 6 6 6 6 6 5 5 5 5 4 4 2 4
7 9 11 10 11 11 11 12 12 11 11 11 10 10 9 9 9 8 8 8 8 7 7 7 6 6 6 6 6 6 6 6 6 6 5 2 3 5 5 4 5 5 5
8 9 10 10 11 11 11 12 12 11 11 11 10 10 10 9 9 9 9 9 8 8 7 7 6 6 6 6 6 6 6 6 6 5 5 3 3 5 6 5 4 5 4
8 9 11 11 12 12 12 12 12 11 11 11 10 10 10 9 9 9 9 8 8 8 8 7 7 6 6 6 6 6 6 6 6 5 3 4 4 7 6 5 5 5 5
10 10 12 11 12 12 12 12 12 12 11 11 10 10 10 9 9 9 8 8 8 8 8 7 7 6 6 5 5 5 5 5 5 4 4 4 4 6 6 6 5 5 5
10 11 12 11 12 12 12 12 11 11 11 10 10 9 9 9 8 8 8 8 8 8 7 7 7 6 5 5 5 5 5 5 5 3 3 4 4 6 5 6 5 5 6
10 11 13 12 12 12 12 11 11 10 10 9 9 9 9 8 8 8 8 8 8 8 7 7 7 6 6 5 5 4 4 5 4 2 2 3 5 6 6 5 5 6 6
10 11 12 12 11 11 10 10 10 10 10 9 9 9 8 8 8 8 8 8 8 8 8 7 7 7 6 5 4 4 4 7 2 2 2 3 6 5 5 5 6 6 6
9 9 9 10 10 10 9 10 10 10 9 9 9 8 8 8 8 8 8 8 8 9 8 8 8 7 6 6 5 4 3 4 3 2 2 4 6 5 5 5 5 6 6
8 8 8 8 7 8 9 10 9 8 8 8 8 8 6 4 5 5 6 9 8 9 9 8 7 6 5 5 5 4 3 4 2 2 2 5 6 5 5 5 5 5 6
7 7 7 7 7 6 6 7 6 6 6 4 5 5 3 6 7 5 10 8 8 8 8 8 7 5 3 1 2 2 3 1 2 2 3 7 5 5 5 5 5 5 5
7 7 6 6 5 5 5 5 4 5 6 6 6 6 6 6 6 6 5 6 6 5 3 6 5 4 5 1 2 3 1 2 1 2 5 7 5 5 5 5 5 4 4
7 6 5 5 5 5 4 5 5 5 5 6 6 6 5 6 5 6 5 4 5 5 6 4 4 4 4 3 3 2 3 3 2 2 5 7 6 5 5 5 5 5 4
7 6 5 4 5 5 5 5 4 5 5 6 6 7 6 5 5 6 5 6 6 5 6 5 4 5 4 4 3 3 2 2 2 2 5 7 6 6 6 5 5 5 5
7 6 5 4 5 5 5 4 5 5 6 6 6 6 7 6 6 5 5 6 6 6 5 5 5 5 5 5 4 4 4 3 3 3 4 6 6 6 6 6 6 5 5
7 6 6 5 4 4 4 4 5 5 5 6 6 7 7 7 6 5 5 5 6 6 6 5 6 4 4 4 5 5 4 4 3 3 3 5 6 6 6 6 6 6 5
7 6 6 4 4 4 4 5 5 5 6 6 6 7 8 7 7 6 6 6 6 7 6 6 6 5 4 4 5 5 5 5 4 4 4 3 4 6 7 7 7 7 6
6 6 6 4 5 5 4 4 4 5 6 6 6 7 8 8 8 6 6 6 7 7 6 5 5 4 4 5 5 5 5 5 5 5 4 4 4 4 7 8 8 8 7
6 7 6 6 5 5 5 4 4 5 5 6 6 7 8 8 8 7 6 6 7 6 6 6 5 5 5 5 5 5 5 5 5 5 6 6 6 5 5 7 7 9 9
6 7 7 6 6 6 4 4 4 4 4 5 6 7 8 7 8 7 6 7 7 6 6 6 6 5 4 4 4 5 5 5 5 6 6 6 6 6 7 6 5 7 9
7 7 7 7 6 5 4 3 3 4 4 4 5 6 6 7 7 7 6 7 7 7 7 7 6 6 6 4 2 3 5 7 7 6 6 6 6 7 6 7 6 5 5
8 7 7 6 6 5 3 3 3 3 3 4 4 5 6 7 7 7 7 6 6 6 7 8 7 5 5 5 4 2 2 4 5 6 6 6 7 6 6 7 7 6 6
8 7 7 7 6 5 5 4 3 3 3 3 4 4 5 6 7 7 8 7 7 7 7 8 7 7 6 6 7 5 3 3 3 4 7 6 7 6 6 7 7 8 7
8 7 8 7 7 6 5 4 4 3 3 4 3 3 4 5 6 7 7 7 7 7 7 7 8 6 6 5 5 6 6 4 2 2 4 6 7 7 7 6 7 8 8
8 8 7 8 7 6 5 5 3 3 3 3 3 4 4 5 6 6 6 7 7 7 7 8 7 8 6 7 6 5 5 4 5 4 4 4 5 6 6 6 6 7 8
8 8 8 8 7 6 5 5 4 4 3 3 3 3 3 3 4 6 5 6 6 6 7 7 7 8 7 7 6 6 5 5 5 4 4 4 4 5 5 5 5 6 7
Wind_Direction
98 98 98 102 99 97 96 93 91 88 85 83 81 80 76 73 70 66 62 58 54 50 43 37 36 37 35 35 32 30 28 24 22 22 22 23 19 15 7 359 335 356 36
102 99 99 100 100 96 93 92 88 85 82 81 79 77 72 67 63 58 53 51 47 42 38 34 30 31 31 29 29 27 25 19 16 13 360 358 33 17 6 5 351 7 9
102 102 106 100 98 94 91 88 87 86 83 80 76 73 68 64 60 56 51 47 45 41 37 33 28 29 29 27 23 22 22 15 10 356 315 336 41 44 11 4 358 357 354
101 98 94 99 96 92 88 87 86 85 81 76 73 68 64 59 56 52 47 43 40 36 33 31 27 26 25 24 21 16 16 12 3 322 328 9 9 42 11 5 2 0 359
98 94 95 96 93 91 90 87 83 79 75 72 69 63 59 56 52 48 43 40 36 31 29 26 21 16 11 9 9 8 7 3 342 314 7 7 8 31 10 5 4 8 8
100 96 96 94 93 91 87 83 79 74 70 66 60 56 52 49 47 44 40 37 31 27 26 23 16 11 7 5 3 2 357 345 309 1 10 4 17 30 12 9 15 17 12
102 98 97 94 92 90 86 81 76 70 64 58 52 49 45 42 40 37 35 31 26 21 20 17 15 15 12 7 2 359 352 326 320 356 358 10 26 20 8 8 13 19 16
102 101 102 98 90 86 82 77 70 64 57 54 50 46 40 38 37 33 28 24 21 19 18 17 15 12 11 11 10 11 360 319 321 357 13 21 36 15 9 12 17 17 17
103 102 102 106 106 99 82 69 63 58 54 51 47 45 43 41 38 32 27 25 24 21 21 19 16 15 20 20 19 21 10 330 325 4 22 39 39 16 11 15 17 16 19
108 106 103 100 96 93 91 77 63 57 52 49 50 45 40 55 57 36 31 36 25 22 20 16 13 14 16 21 23 22 337 280 11 28 28 51 38 21 18 20 22 21 20
113 109 105 101 95 85 78 76 74 73 54 53 69 60 10 26 28 33 38 30 25 20 18 15 8 359 330 91 56 340 274 344 37 22 40 42 29 26 27 24 24 25 21
121 115 109 103 100 90 74 73 59 54 50 41 35 32 29 33 25 21 71 48 30 8 11 20 338 289 282 355 120 238 328 1 347 40 58 40 26 26 27 28 23 24 22
120 116 108 105 97 85 82 68 56 51 49 46 38 36 25 23 22 22 18 31 20 359 10 9 331 4 358 8 344 351 10 354 353 37 59 41 28 25 30 29 27 25 29
121 114 110 105 102 93 81 73 61 53 47 44 38 31 27 26 19 25 20 17 13 19 10 3 2 14 6 10 6 7 16 9 16 39 68 49 30 28 32 29 30 28 31
123 120 109 103 95 91 84 72 66 58 43 55 45 36 32 26 24 24 27 18 16 14 12 5 7 18 14 22 23 25 23 28 27 40 73 70 43 33 31 31 30 28 34
129 119 114 112 104 102 98 86 68 63 66 53 46 40 34 31 26 17 27 25 19 12 9 5 20 13 22 29 32 37 27 31 42 53 56 87 85 57 39 35 30 29 34
130 124 119 114 113 101 88 80 76 70 63 56 48 38 37 33 26 25 24 28 20 13 13 13 21 19 32 40 48 45 47 36 40 51 55 47 77 89 66 47 37 35 38
133 127 123 125 121 108 97 89 85 73 62 56 50 41 36 36 33 31 27 28 22 19 19 19 16 26 38 40 46 44 55 53 46 47 56 60 54 59 81 63 46 40 39
133 131 128 126 124 116 108 99 87 81 67 56 50 44 37 37 33 39 31 24 26 26 25 22 25 19 36 37 51 53 48 49 45 44 50 50 55 54 63 80 72 57 46
139 135 131 131 130 124 121 111 100 84 74 64 54 46 36 34 32 33 36 30 26 31 28 29 32 32 28 25 49 62 57 57 55 44 41 48 49 49 49 49 61 73 61
150 145 141 143 139 136 127 117 104 92 80 70 58 48 39 34 31 33 28 30 24 31 28 28 26 39 36 19 44 79 78 59 51 49 39 38 49 46 46 48 43 44 64
155 153 150 147 144 137 121 108 102 93 82 72 65 58 40 36 32 30 31 33 34 33 33 31 29 26 37 27 11 26 75 78 48 45 42 40 40 43 40 43 45 44 41
158 159 155 151 146 139 132 121 122 116 116 97 75 57 40 38 38 34 34 34 33 35 35 29 28 29 30 35 30 17 25 38 32 48 41 42 40 34 36 36 41 41 42
159 160 158 153 145 140 142 136 125 110 92 76 65 64 62 51 45 39 39 38 39 38 37 34 36 31 27 34 41 34 35 31 10 43 51 41 38 35 33 31 34 39 38
156 156 155 148 141 139 136 126 129 108 95 90 80 74 66 63 50 46 42 42 41 40 39 38 34 31 35 34 33 33 35 31 20 29 38 29 40 38 33 30 33 36 34
153 155 155 149 141 140 141 137 127 113 107 98 82 70 69 71 58 53 46 46 44 41 39 37 37 41 35 34 32 34 30 29 21 21 22 26 31 31 31 35 30 30 26
Height
1542 1541 1541 1542 1542 1543 1543 1543 1543 1544 1543 1543 1543 1543 1542 1542 1542 1542 1541 1541 1540 1540 1539 1539 1538 1538 1537 1537 1536 1536 1535 1534 1534 1533 1532 1532 1531 1530 1530 1529 1528 1529 1528
1542 1542 1542 1543 1543 1544 1544 1544 1544 1544 1544 1544 1544 1544 1543 1543 1542 1542 1542 1541 1541 1540 1539 1539 1538 1538 1537 1537 1536 1536 1535 1535 1534 1533 1533 1532 1531 1530 1530 1529 1528 1528 1527
1544 1544 1544 1544 1544 1545 1545 1545 1545 1545 1545 1545 1545 1545 1544 1544 1543 1542 1542 1541 1541 1540 1539 1539 1538 1538 1537 1537 1536 1536 1535 1535 1534 1533 1533 1533 1533 1531 1529 1529 1528 1527 1526
1545 1546 1545 1545 1545 1546 1546 1546 1546 1546 1546 1546 1546 1545 1545 1544 1544 1543 1542 1541 1541 1540 1539 1538 1538 1537 1536 1536 1536 1535 1535 1534 1534 1533 1534 1534 1533 1531 1530 1529 1528 1527 1526
1547 1547 1547 1547 1547 1547 1548 1548 1548 1548 1548 1547 1547 1546 1546 1545 1544 1543 1542 1542 1541 1540 1539 1538 1537 1537 1536 1536 1535 1535 1534 1534 1534 1534 1534 1533 1532 1531 1530 1529 1528 1527 1526
1549 1549 1548 1548 1549 1549 1549 1549 1549 1549 1549 1548 1548 1547 1546 1546 1545 1544 1543 1542 1541 1540 1539 1538 1537 1536 1536 1535 1535 1534 1534 1534 1534 1534 1534 1533 1532 1531 1530 1529 1528 1527 1526
1551 1551 1551 1550 1551 1551 1551 1551 1551 1551 1550 1550 1549 1548 1547 1547 1546 1544 1543 1542 1541 1540 1539 1538 1537 1536 1535 1535 1534 1534 1533 1533 1534 1534 1534 1533 1532 1531 1530 1529 1528 1527 1526
1553 1553 1553 1552 1552 1553 1553 1552 1552 1552 1552 1551 1550 1549 1548 1547 1546 1545 1544 1542 1541 1540 1539 1538 1537 1536 1535 1535 1534 1533 1533 1533 1534 1534 1534 1533 1532 1531 1530 1530 1529 1528 1527
1554 1555 1555 1556 1555 1555 1554 1554 1554 1554 1553 1552 1551 1550 1549 1548 1547 1545 1544 1543 1541 1540 1539 1538 1537 1536 1535 1535 1534 1533 1533 1533 1534 1534 1534 1534 1532 1532 1531 1530 1529 1529 1527
1556 1557 1557 1557 1558 1558 1557 1556 1555 1555 1554 1553 1552 1551 1550 1549 1547 1546 1545 1543 1541 1540 1539 1538 1537 1536 1535 1535 1534 1533 1533 1533 1534 1535 1535 1534 1533 1532 1532 1531 1530 1530 1529
1558 1559 1559 1559 1559 1559 1559 1558 1557 1556 1555 1555 1554 1552 1551 1551 1549 1548 1545 1543 1541 1540 1539 1537 1536 1536 1535 1535 1534 1534 1534 1535 1535 1535 1534 1533 1533 1533 1532 1532 1531 1530 1530
1560 1560 1561 1561 1561 1561 1560 1559 1559 1559 1557 1556 1555 1553 1552 1551 1549 1548 1545 1543 1542 1540 1539 1538 1536 1536 1536 1536 1535 1534 1535 1535 1535 1535 1534 1533 1533 1533 1533 1532 1532 1531 1530
1561 1562 1562 1562 1562 1562 1562 1561 1560 1560 1558 1557 1556 1554 1553 1552 1551 1549 1547 1546 1544 1542 1541 1539 1538 1537 1537 1536 1535 1536 1535 1535 1535 1535 1534 1533 1533 1533 1533 1533 1532 1532 1531
1562 1563 1563 1563 1564 1563 1563 1562 1562 1561 1560 1558 1557 1556 1554 1553 1551 1550 1548 1546 1545 1543 1541 1540 1539 1538 1537 1537 1536 1536 1535 1535 1535 1535 1534 1533 1533 1533 1533 1533 1533 1532 1532
1563 1564 1564 1564 1565 1565 1564 1563 1563 1562 1561 1560 1557 1557 1555 1554 1553 1551 1549 1547 1546 1544 1543 1541 1540 1539 1538 1537 1536 1536 1535 1535 1535 1535 1535 1534 1534 1534 1533 1533 1533 1533 1532
1564 1565 1565 1565 1565 1565 1565 1565 1564 1563 1562 1561 1559 1558 1557 1555 1554 1552 1551 1548 1547 1545 1544 1542 1541 1539 1539 1538 1537 1536 1535 1535 1536 1535 1535 1535 1534 1534 1534 1534 1533 1533 1532
1565 1565 1566 1566 1566 1566 1566 1566 1565 1564 1564 1562 1561 1560 1558 1556 1555 1553 1552 1550 1548 1547 1545 1543 1542 1541 1540 1539 1538 1537 1536 1536 1536 1536 1536 1536 1536 1535 1535 1534 1534 1533 1532
1565 1566 1566 1566 1567 1567 1566 1566 1566 1566 1565 1564 1562 1561 1560 1558 1556 1554 1553 1552 1550 1548 1546 1544 1543 1542 1541 1540 1539 1539 1538 1537 1537 1537 1537 1537 1537 1536 1536 1535 1534 1533 1532
1565 1566 1567 1567 1567 1567 1567 1567 1567 1567 1566 1565 1564 1562 1561 1560 1558 1557 1554 1553 1552 1550 1548 1546 1544 1543 1542 1541 1541 1540 1539 1539 1538 1538 1538 1538 1537 1537 1537 1536 1535 1534 1533
1566 1567 1567 1567 1568 1568 1568 1569 1568 1568 1567 1566 1565 1563 1562 1561 1559 1558 1557 1555 1553 1551 1549 1548 1546 1544 1543 1543 1543 1542 1541 1540 1540 1539 1539 1539 1539 1538 1538 1537 1537 1535 1534
1566 1567 1567 1568 1568 1569 1569 1570 1570 1569 1569 1567 1566 1565 1563 1562 1561 1559 1558 1557 1554 1553 1551 1550 1548 1547 1545 1544 1545 1544 1544 1543 1542 1541 1541 1540 1540 1539 1539 1538 1538 1537 1536
1566 1567 1568 1568 1569 1569 1569 1570 1570 1569 1569 1568 1567 1566 1565 1564 1562 1561 1560 1558 1557 1555 1553 1551 1549 1549 1548 1546 1546 1546 1545 1546 1544 1543 1542 1542 1541 1541 1540 1540 1539 1538 1537
1565 1566 1568 1568 1569 1569 1570 1570 1570 1570 1570 1570 1569 1568 1566 1565 1564 1562 1561 1560 1558 1557 1555 1553 1552 1550 1550 1549 1547 1547 1547 1546 1546 1546 1544 1544 1543 1542 1542 1541 1540 1540 1539
1564 1566 1567 1568 1569 1570 1570 1571 1572 1572 1572 1571 1570 1569 1568 1566 1565 1564 1563 1562 1560 1559 1557 1556 1554 1553 1552 1551 1550 1548 1549 1548 1548 1547 1547 1546 1544 1544 1543 1542 1542 1541 1540
1563 1565 1567 1568 1569 1570 1571 1571 1572 1572 1572 1571 1571 1570 1569 1568 1567 1565 1564 1563 1562 1561 1559 1558 1556 1555 1554 1553 1552 1551 1550 1550 1550 1549 1548 1548 1546 1545 1544 1543 1543 1542 1541
1562 1564 1566 1567 1568 1570 1570 1571 1572 1572 1572 1572 1571 1571 1570 1569 1568 1567 1566 1565 1564 1563 1561 1560 1558 1557 1556 1555 1554 1553 1553 1552 1551 1550 1549 1549 1548 1547 1546 1545 1544 1543 1542